Regional Weather Roundup
Issued by NWS

Home | Current Version | Previous Version | Text Only | Print | Product List | Glossary Off
Versions: 1 2 3 4 5 6 7 8 9 10 11 12 13 14 15 16 17 18 19 20 21 22 23 24 25 26 27 28 29 30 31 32 33 34 35 36 37 38 39 40 41 42 43 44 45 46 47 48 49 50

000
ASUS43 KDTX 220810
RWRMI
MICHIGAN HOURLY REGIONAL WEATHER ROUNDUP
NATIONAL WEATHER SERVICE DETROIT/PONTIAC MI
400 AM EDT FRI AUG 22 2014

NOTE: "FAIR" INDICATES FEW OR NO CLOUDS BELOW 12,000 FEET WITH NO
SIGNIFICANT WEATHER AND/OR OBSTRUCTION TO VISIBILITY.

MIZ047>049-052>055-059>063-066>070-074>076-081>083-220900-
SOUTHEAST LOWER MICHIGAN

CITY           SKY/WX    TMP DP  RH WIND       PRES   REMARKS
ADRIAN         CLOUDY    71  70  96 CALM      29.95F
ALMA           CLOUDY    65  64  94 NE5       29.96S FOG
ANN ARBOR      MOCLDY    71  69  93 E3        29.94F FOG
BAD AXE        CLOUDY    55  55 100 CALM      29.99S FOG
CARO           CLOUDY    65  64  95 CALM      29.97S
DETROIT CITY   CLOUDY    70  66  87 CALM      29.94F
DETROIT        CLOUDY    70  68  93 NE3       29.94F FOG
FLINT          CLOUDY    69  63  81 E3        29.96F
GROSSE ILE     CLOUDY    70  68  94 CALM      29.93F FOG
HILLSDALE      FOG       69  69 100 CALM      29.95F VSB 1/4
HOWELL         CLOUDY    69  69  98 NE3       29.95F FOG

CITY           SKY/WX    TMP DP  RH WIND       PRES   REMARKS
JACKSON        FOG       69  67  93 CALM      29.94F VSB 1/4
LAMBERTVILLE   MOCLDY    70  68  94 S3        29.95S
LANSING        CLOUDY    71  69  93 NE5       29.94F FOG
LAPEER         CLOUDY    65  64  95 CALM      29.97F
MASON          FOG       68  68  98 CALM      29.94F VSB 1/4
MONROE           N/A     70  68  94 CALM      29.93F FOG
MT. CLEMENS    MOCLDY    67  63  87 N3        29.94F
PONTIAC        CLOUDY    68  63  84 E5        29.95F
PORT HOPE        N/A     60  58  92 CALM      29.97F
PORT HURON     MOCLDY    64  64 100 CALM      29.96F
TRI CITIES     CLOUDY    69  65  86 E3        29.97F
TROY           CLOUDY    68  65  90 CALM      29.96F
SAGINAW HB     CLOUDY    64  64 100 CALM      29.96F
$$
MIZ043>046-050>051-056>058-064>065-071>073-077>080-220900-
SOUTHWEST LOWER MICHIGAN

CITY           SKY/WX    TMP DP  RH WIND       PRES   REMARKS
BATTLE CREEK   CLOUDY    73  69  87 CALM      29.94F
BENTON HARBOR  PTCLDY    68  67  96 CALM      29.90F
BIG RAPIDS     CLOUDY    67  67 100 W5        29.95S
COLDWATER      FOG       69  68  97 CALM      29.94S VSB 1/2
FREMONT        CLOUDY    69  68  98 E5        29.93S FOG
HOLLAND        CLEAR     71  69  93 E3        29.92F FOG
GRAND RAPIDS   CLOUDY    71  71 100 E5        29.94S FOG
IONIA          PTSUNNY   67  66  97 E5        29.93F FOG
KALAMAZOO      FOG       69  68  96 CALM      29.93F VSB 1/4
LUDINGTON      CLOUDY    69  69  98 E3        29.93S FOG
MARSHALL       FOG       65  65  99 CALM      29.93F VSB 1/2
MOUNT PLEASANT PTCLDY    64  63  96 CALM      29.95F FOG
MUSKEGON       CLEAR     70  68  93 E5        29.92F FOG
SOUTH HAVEN    FOG       69  69 100 CALM      29.91F VSB 1/4
$$
MIZ016>042-220900-
NORTHERN LOWER MICHIGAN

CITY           SKY/WX    TMP DP  RH WIND       PRES   REMARKS
ALPENA         CLOUDY    59  58  96 CALM      29.99F
BEAVER ISLAND  CLOUDY    65  64  98 SE5       29.97F
BELLAIRE       CLOUDY    65  64  93 CALM      29.95F
CADILLAC       CLOUDY    66  65  99 SE3       29.96F
CHARLEVOIX     CLOUDY    68  67  95 SE3       29.99F
FRANKFORT      MOCLDY    67  64  89 CALM      29.92F
GAYLORD        CLOUDY    65  62  90 CALM      29.99F
GRAYLING       RAIN      67  66  99 E3        29.99F
HARBOR SPRINGS CLOUDY    66  64  93 E5        29.97F
HOUGHTON LAKE  MOCLDY    63  62  97 CALM      29.99S
MANISTEE       CLOUDY    66  64  94 E3        29.94F
OSCODA         CLOUDY    58  58 100 CALM      29.98S
PELLSTON       CLOUDY    60  59  96 CALM      29.98F
ROGERS CITY    MOCLDY    60  60 100 CALM      30.00S FOG
TRAVERSE CITY  CLOUDY    68  64  87 CALM      29.94F
$$
MIZ007>008-015-220900-
EASTERN UPPER MICHIGAN

CITY           SKY/WX    TMP DP  RH WIND       PRES   REMARKS
KINROSS        MOCLDY    59  57  94 CALM      29.98F
MACKINAC ISLAN FOG       61  61 100 E5        29.98S VSB 1/4
NEWBERRY       FOG       54  54 100 CALM      29.97F VSB 1/4
S. S. MARIE    FOG       60  58  92 NE5       29.97F VSB 1/4
MUNISING         N/A     65  60  84 CALM      29.95F
$$
MIZ004>006-011>014-085-220900-
CENTRAL UPPER MICHIGAN

CITY           SKY/WX    TMP DP  RH WIND       PRES   REMARKS
MANISTIQUE     CLOUDY    63  61  94 CALM      29.96S
ESCANABA       CLOUDY    64  59  82 CALM      29.95S
MENOMINEE      CLOUDY    66  63  88 E3        29.92F
SAWYER-GWINN   CLOUDY    64  60  86 CALM      29.97S
$$
MIZ001>003-009>011-084-220900-
WESTERN UPPER MICHIGAN

CITY           SKY/WX    TMP DP  RH WIND       PRES   REMARKS
IRON MOUNTAIN  CLOUDY    63  61  93 SE3       29.94F
HOUGHTON       CLOUDY    58  56  93 E8        29.94F
COPPER HARBOR    N/A     59  55  87 CALM      29.95S
IRONWOOD       CLOUDY    66  64  94 SE6       29.89S
$$

ABBREVIATIONS USED IN REMARKS
   TC - TEMPERATURE IN CELSIUS
  WCI - WIND CHILL INDEX
   HX - HEAT INDEX
  VSB - VISIBILITY




USA.gov is the U.S. government's official web portal to all federal, state and local government web resources and services.